Погода в Верхней Хиле

Россия / Забайкальский край     52°05′15″N   115°53′13″E
В апреле 2022 года жителям России запретили посещать сайт meteo.paraplan.net по решению Генеральной прокуратуры. Аудитория сайта уменьшилась в 10 раз. Владельцы сайта не видят смысла в поддержке погодного сервера в таких условиях. Сайт будет закрыт в октябре.
темп.,
°C
ветер,
м/с
пор.,
м/с
влажн.,
%
обл.,
%
осадки,
мм/ч
давл.,
гПа
погр.,
м
1 октября, сб
сб100:00+3ю2261100 0.0 101511
03:00+2ююв2273100 0.0 101514
06:00+1юв227899 0.0 101326
09:00+3ююв41293100 2.3 1013615
12:00+6ююз71376100 0.3 1012964
15:00+8з7967100 1.4 10121141
18:00+6зюз6963100 0.0 1013914
21:00+3з51167100 0.0 1016391
2 октября, вс
вс200:00+1з71358100 0.0 1018812
03:00−1з613605 0.0 1019710
06:00−1з61259100 0.0 1020626
09:000з71151100 0.0 1021889
12:00+3зсз71033100 0.0 10211569
15:00+5сз8102770 0.0 10202281
18:00+4сз69325 0.0 10211146
21:00−1зсз33484 0.0 102536
3 октября, пн
пн300:00−3сз34552 0.0 102762
03:00−3зсз22615 0.0 102829
06:00−4зсз346620 0.0 102979
09:00−2зсз364888 0.0 1030385
12:00+2ссз563074 0.0 10281918
15:00+3ссз5727100 0.0 10272370
18:00+2с473197 0.0 1027351
21:00−3сз22425 0.0 103010
4 октября, вт
вт400:00−4зсз22465 0.0 103012
03:00−4зсз22500 0.0 103015
06:00−5зсз22520 0.0 103113
09:00−2з22425 0.0 1031162
12:00+3ссз46255 0.0 10281959
15:00+4ссз462587 0.0 10262354
18:00+2ссв1133100 0.0 102510
21:000ссв1138100 0.0 102610
5 октября, ср
ср500:00−1ссв1140100 0.0 102510
03:00−1зсз1143100 0.0 102510
06:00−2сз225086 0.0 102516
09:00−1сз23587 0.0 1025221
12:00+3сз343462 0.0 10231737
15:00+4ссз3430100 0.0 10212079
18:00+3сз3433100 0.0 1020120
21:00−1зсз214334 0.0 102110